QPF
0.01 0.01 0.01 0.01 0.01 0.02 0.01 0.02 0.03 0.05 0.07 0.07 0.07 0.05 0.02 0.02 0.01 0.02 0.05 0.05 0.10 0.08 0.05 0.05 0.03 0.01 0.01 0.02 0.03 0.03 0.02 0.02 0.03 0.03 0.02 0.02 0.02 0.03 0.03 0.03 0.04 0.05 0.04 0.03
0.01 0.01 0.01 0.01 0.01 0.02 0.01 0.01 0.03 0.04 0.06 0.08 0.04 0.03 0.02 0.02 0.03 0.03 0.04 0.05 0.04 0.06 0.05 0.03 0.03 0.03 0.03 0.03 0.06 0.11 0.05 0.02 0.02 0.02 0.01 0.02 0.02 0.02 0.02 0.02 0.03 0.04 0.04 0.04
0.01 0.01 0.01 0.01 0.01 0.01 0.01 0.01 0.02 0.03 0.06 0.05 0.04 0.04 0.03 0.03 0.04 0.06 0.06 0.07 0.06 0.05 0.05 0.03 0.03 0.02 0.03 0.03 0.05 0.07 0.05 0.03 0.02 0.01 0.01 0.01 0.02 0.03 0.02 0.02 0.02 0.03 0.03 0.03
0.01 0.01 0.01 0.02 0.02 0.01 0.01 0.01 0.01 0.02 0.04 0.06 0.04 0.03 0.02 0.02 0.05 0.06 0.07 0.07 0.07 0.05 0.07 0.07 0.03 0.03 0.04 0.03 0.04 0.03 0.04 0.02 0.02 0.01 0.01 0.01 0.01 0.02 0.02 0.01 0.02 0.02 0.02 0.03
0.01 0.01 0.01 0.01 0.01 0.01 0.01 0.01 0.01 0.02 0.03 0.05 0.04 0.03 0.02 0.02 0.04 0.07 0.08 0.08 0.08 0.06 0.06 0.08 0.05 0.03 0.03 0.07 0.10 0.06 0.05 0.03 0.02 0.01 0.01 0.01 0.01 0.01 0.02 0.02 0.02 0.02 0.03 0.03
0.01 0.01 0.01 0.01 0.01 0.01 0.01 0.02 0.05 0.04 0.04 0.04 0.03 0.02 0.01 0.01 0.02 0.04 0.06 0.06 0.08 0.06 0.07 0.09 0.05 0.03 0.04 0.06 0.12 0.14 0.07 0.03 0.02 0.02 0.01 0.01 0.01 0.01 0.01 0.02 0.02 0.03 0.03 0.03
0.00 0.01 0.01 0.01 0.01 0.01 0.02 0.05 0.08 0.08 0.07 0.04 0.02 0.02 0.02 0.02 0.02 0.03 0.04 0.04 0.05 0.05 0.05 0.04 0.03 0.02 0.03 0.04 0.04 0.05 0.05 0.03 0.02 0.02 0.02 0.02 0.01 0.01 0.01 0.02 0.02 0.03 0.03 0.04
0.01 0.02 0.01 0.01 0.02 0.01 0.02 0.03 0.03 0.04 0.05 0.06 0.04 0.04 0.05 0.04 0.04 0.05 0.06 0.04 0.05 0.10 0.08 0.03 0.01 0.02 0.02 0.03 0.04 0.04 0.04 0.03 0.02 0.02 0.02 0.01 0.02 0.02 0.02 0.02 0.02 0.02 0.02 0.03
0.01 0.02 0.01 0.01 0.01 0.01 0.01 0.02 0.01 0.02 0.04 0.05 0.04 0.05 0.05 0.06 0.06 0.07 0.05 0.07 0.10 0.10 0.06 0.03 0.02 0.02 0.02 0.03 0.04 0.04 0.04 0.04 0.03 0.03 0.03 0.03 0.03 0.02 0.02 0.02 0.02 0.01 0.02 0.03
0.01 0.00 0.01 0.00 0.00 0.01 0.01 0.01 0.01 0.02 0.03 0.06 0.05 0.05 0.06 0.07 0.10 0.12 0.07 0.06 0.08 0.06 0.03 0.03 0.02 0.01 0.02 0.02 0.03 0.04 0.06 0.05 0.04 0.05 0.05 0.05 0.05 0.04 0.03 0.03 0.02 0.02 0.03 0.04
0.01 0.01 0.00 0.00 0.00 0.01 0.01 0.01 0.01 0.02 0.03 0.04 0.05 0.05 0.05 0.05 0.08 0.12 0.06 0.03 0.04 0.03 0.02 0.02 0.01 0.02 0.02 0.02 0.02 0.03 0.04 0.08 0.10 0.09 0.07 0.07 0.05 0.05 0.04 0.04 0.04 0.04 0.05 0.07
0.02 0.01 0.01 0.01 0.00 0.01 0.01 0.02 0.01 0.01 0.03 0.04 0.03 0.04 0.05 0.05 0.06 0.07 0.05 0.04 0.02 0.02 0.01 0.01 0.02 0.02 0.01 0.02 0.02 0.02 0.02 0.05 0.07 0.08 0.07 0.06 0.05 0.04 0.03 0.03 0.04 0.03 0.03 0.04
0.00 0.01 0.03 0.01 0.01 0.01 0.01 0.01 0.01 0.02 0.03 0.03 0.02 0.03 0.03 0.03 0.04 0.03 0.03 0.03 0.03 0.03 0.02 0.02 0.02 0.02 0.02 0.03 0.04 0.03 0.04 0.04 0.04 0.04 0.05 0.05 0.04 0.03 0.02 0.02 0.02 0.02 0.01 0.01
0.00 0.01 0.02 0.01 0.01 0.02 0.02 0.02 0.02 0.01 0.03 0.04 0.03 0.04 0.04 0.04 0.05 0.03 0.03 0.04 0.08 0.12 0.10 0.05 0.02 0.01 0.01 0.02 0.04 0.04 0.04 0.06 0.06 0.06 0.05 0.05 0.05 0.05 0.03 0.02 0.01 0.01 0.01 0.01
0.00 0.01 0.01 0.01 0.02 0.02 0.02 0.01 0.01 0.01 0.01 0.02 0.02 0.02 0.03 0.03 0.04 0.05 0.05 0.03 0.05 0.10 0.13 0.11 0.06 0.03 0.02 0.02 0.04 0.04 0.01 0.01 0.03 0.06 0.08 0.06 0.05 0.05 0.04 0.02 0.01 0.01 0.01 0.01
0.01 0.01 0.01 0.01 0.02 0.02 0.02 0.01 0.01 0.01 0.01 0.01 0.01 0.01 0.02 0.04 0.04 0.05 0.05 0.03 0.02 0.02 0.07 0.12 0.06 0.03 0.04 0.02 0.02 0.01 0.00 0.00 0.01 0.03 0.08 0.07 0.06 0.04 0.03 0.03 0.02 0.02 0.02 0.01
0.01 0.01 0.02 0.03 0.02 0.02 0.01 0.01 0.02 0.02 0.01 0.01 0.01 0.01 0.02 0.02 0.02 0.04 0.04 0.03 0.02 0.02 0.03 0.05 0.02 0.01 0.01 0.01 0.01 0.01 0.00 0.00 0.00 0.01 0.04 0.08 0.06 0.05 0.05 0.03 0.02 0.02 0.02 0.02
0.01 0.01 0.02 0.03 0.01 0.02 0.01 0.01 0.01 0.01 0.01 0.01 0.02 0.02 0.02 0.01 0.02 0.03 0.02 0.03 0.04 0.04 0.02 0.02 0.01 0.01 0.01 0.01 0.01 0.01 0.00 0.00 0.01 0.01 0.01 0.03 0.05 0.05 0.05 0.05 0.03 0.03 0.03 0.03
0.01 0.01 0.01 0.01 0.01 0.01 0.01 0.02 0.02 0.02 0.03 0.02 0.02 0.02 0.02 0.01 0.01 0.03 0.03 0.02 0.03 0.04 0.04 0.05 0.03 0.01 0.01 0.01 0.01 0.01 0.01 0.01 0.01 0.01 0.01 0.01 0.02 0.02 0.03 0.04 0.03 0.03 0.03 0.03
0.01 0.01 0.02 0.02 0.02 0.03 0.03 0.02 0.02 0.02 0.03 0.04 0.04 0.02 0.02 0.01 0.02 0.03 0.05 0.04 0.03 0.05 0.08 0.07 0.04 0.01 0.02 0.02 0.02 0.02 0.02 0.02 0.02 0.01 0.01 0.02 0.02 0.02 0.02 0.02 0.03 0.03 0.03 0.03
0.02 0.02 0.02 0.03 0.03 0.03 0.03 0.02 0.03 0.03 0.03 0.03 0.03 0.03 0.02 0.02 0.02 0.03 0.04 0.06 0.04 0.04 0.03 0.02 0.01 0.02 0.02 0.02 0.03 0.05 0.06 0.06 0.04 0.03 0.03 0.03 0.03 0.04 0.04 0.03 0.02 0.02 0.03 0.02
0.03 0.03 0.03 0.04 0.06 0.05 0.03 0.03 0.04 0.05 0.03 0.03 0.04 0.04 0.04 0.03 0.03 0.03 0.03 0.04 0.04 0.04 0.03 0.02 0.02 0.01 0.01 0.02 0.04 0.05 0.06 0.07 0.07 0.06 0.05 0.05 0.05 0.05 0.06 0.05 0.04 0.03 0.03 0.02
0.04 0.05 0.05 0.05 0.06 0.05 0.03 0.03 0.03 0.03 0.04 0.04 0.05 0.04 0.03 0.03 0.02 0.03 0.03 0.04 0.03 0.04 0.04 0.03 0.03 0.02 0.03 0.03 0.04 0.05 0.05 0.06 0.08 0.08 0.07 0.07 0.07 0.06 0.07 0.07 0.06 0.05 0.05 0.04
0.05 0.05 0.05 0.05 0.05 0.05 0.03 0.02 0.02 0.03 0.07 0.08 0.06 0.04 0.03 0.03 0.02 0.02 0.04 0.05 0.08 0.10 0.07 0.04 0.03 0.02 0.02 0.02 0.02 0.03 0.04 0.06 0.07 0.07 0.08 0.09 0.09 0.09 0.09 0.10 0.09 0.07 0.07 0.06
0.07 0.06 0.08 0.07 0.05 0.04 0.03 0.02 0.02 0.03 0.05 0.06 0.07 0.06 0.04 0.04 0.07 0.05 0.04 0.07 0.11 0.13 0.09 0.06 0.05 0.05 0.04 0.05 0.04 0.04 0.05 0.06 0.06 0.06 0.07 0.08 0.07 0.07 0.09 0.10 0.09 0.07 0.06 0.06
0.06 0.06 0.07 0.07 0.05 0.03 0.04 0.03 0.03 0.03 0.04 0.03 0.03 0.05 0.09 0.07 0.06 0.06 0.06 0.09 0.09 0.09 0.10 0.11 0.11 0.09 0.06 0.04 0.03 0.04 0.05 0.05 0.05 0.05 0.05 0.05 0.04 0.05 0.06 0.08 0.07 0.05 0.05 0.05
MSLP
1013.46 1014.01 1014.34 1014.45 1014.39 1014.21 1013.97 1013.72 1013.47 1013.21 1012.90 1012.51 1012.00 1011.36 1010.61 1009.80 1008.98 1008.23 1007.60 1007.12 1006.80 1006.62 1006.55 1006.53 1006.52 1006.51 1006.49 1006.48 1006.53 1006.66 1006.89 1007.24 1007.68 1008.17 1008.66 1009.08 1009.40 1009.58 1009.62 1009.55 1009.41 1009.25 1009.13 1009.06
1013.73 1014.10 1014.26 1014.24 1014.12 1013.96 1013.82 1013.72 1013.67 1013.60 1013.46 1013.18 1012.72 1012.06 1011.22 1010.28 1009.31 1008.41 1007.65 1007.09 1006.71 1006.51 1006.42 1006.39 1006.37 1006.32 1006.25 1006.19 1006.18 1006.26 1006.48 1006.84 1007.32 1007.88 1008.43 1008.93 1009.30 1009.52 1009.58 1009.51 1009.36 1009.18 1009.04 1008.96
1013.90 1014.08 1014.07 1013.93 1013.76 1013.64 1013.61 1013.68 1013.83 1013.97 1014.01 1013.86 1013.46 1012.79 1011.89 1010.83 1009.74 1008.71 1007.84 1007.19 1006.76 1006.52 1006.41 1006.37 1006.32 1006.23 1006.11 1005.99 1005.92 1005.96 1006.14 1006.49 1006.98 1007.56 1008.16 1008.69 1009.11 1009.37 1009.45 1009.40 1009.26 1009.09 1008.96 1008.88
1014.07 1014.06 1013.89 1013.65 1013.45 1013.37 1013.45 1013.70 1014.03 1014.37 1014.57 1014.54 1014.20 1013.55 1012.61 1011.48 1010.29 1009.17 1008.22 1007.49 1007.02 1006.75 1006.62 1006.56 1006.48 1006.36 1006.20 1006.02 1005.88 1005.85 1005.98 1006.28 1006.74 1007.30 1007.90 1008.44 1008.87 1009.15 1009.26 1009.24 1009.13 1008.98 1008.86 1008.80
1014.35 1014.16 1013.86 1013.54 1013.32 1013.28 1013.46 1013.84 1014.33 1014.82 1015.15 1015.22 1014.95 1014.32 1013.37 1012.21 1010.98 1009.81 1008.81 1008.05 1007.55 1007.26 1007.13 1007.04 1006.95 1006.80 1006.59 1006.35 1006.15 1006.04 1006.09 1006.31 1006.69 1007.19 1007.73 1008.24 1008.65 1008.92 1009.04 1009.04 1008.95 1008.83 1008.73 1008.67
1014.83 1014.49 1014.08 1013.70 1013.47 1013.46 1013.70 1014.17 1014.76 1015.34 1015.77 1015.92 1015.70 1015.11 1014.18 1013.03 1011.80 1010.63 1009.63 1008.88 1008.38 1008.09 1007.95 1007.86 1007.74 1007.56 1007.31 1007.01 1006.74 1006.54 1006.49 1006.61 1006.88 1007.27 1007.71 1008.14 1008.49 1008.72 1008.82 1008.81 1008.73 1008.62 1008.53 1008.48
1015.51 1015.08 1014.59 1014.17 1013.92 1013.92 1014.18 1014.69 1015.32 1015.94 1016.41 1016.59 1016.42 1015.88 1015.01 1013.91 1012.73 1011.61 1010.66 1009.94 1009.46 1009.19 1009.04 1008.94 1008.81 1008.60 1008.30 1007.95 1007.60 1007.32 1007.16 1007.15 1007.29 1007.55 1007.86 1008.17 1008.42 1008.58 1008.63 1008.58 1008.49 1008.37 1008.27 1008.22
1016.37 1015.88 1015.36 1014.91 1014.64 1014.62 1014.87 1015.35 1015.96 1016.57 1017.03 1017.23 1017.09 1016.60 1015.81 1014.80 1013.72 1012.69 1011.81 1011.15 1010.70 1010.43 1010.28 1010.16 1010.00 1009.76 1009.42 1009.02 1008.61 1008.24 1007.98 1007.86 1007.86 1007.97 1008.14 1008.32 1008.45 1008.50 1008.47 1008.37 1008.23 1008.08 1007.95 1007.88
1017.28 1016.79 1016.26 1015.81 1015.52 1015.47 1015.67 1016.09 1016.64 1017.18 1017.60 1017.79 1017.67 1017.25 1016.54 1015.65 1014.69 1013.77 1012.98 1012.37 1011.95 1011.69 1011.52 1011.36 1011.15 1010.86 1010.48 1010.04 1009.57 1009.14 1008.80 1008.57 1008.46 1008.44 1008.48 1008.52 1008.52 1008.47 1008.35 1008.17 1007.96 1007.77 1007.60 1007.50
1018.13 1017.66 1017.16 1016.73 1016.43 1016.35 1016.48 1016.81 1017.26 1017.71 1018.07 1018.23 1018.13 1017.76 1017.16 1016.39 1015.56 1014.75 1014.04 1013.49 1013.08 1012.79 1012.57 1012.36 1012.09 1011.75 1011.32 1010.83 1010.33 1009.86 1009.46 1009.16 1008.96 1008.84 1008.76 1008.69 1008.59 1008.44 1008.22 1007.98 1007.71 1007.46 1007.26 1007.13
1018.75 1018.35 1017.92 1017.52 1017.24 1017.12 1017.19 1017.43 1017.77 1018.12 1018.40 1018.52 1018.43 1018.13 1017.62 1016.97 1016.25 1015.55 1014.91 1014.38 1013.96 1013.63 1013.34 1013.04 1012.70 1012.28 1011.80 1011.28 1010.75 1010.26 1009.83 1009.49 1009.24 1009.05 1008.90 1008.76 1008.58 1008.36 1008.09 1007.79 1007.48 1007.20 1006.97 1006.83
1019.07 1018.77 1018.43 1018.09 1017.84 1017.72 1017.73 1017.89 1018.13 1018.39 1018.59 1018.67 1018.60 1018.34 1017.91 1017.36 1016.75 1016.12 1015.54 1015.02 1014.56 1014.17 1013.79 1013.39 1012.96 1012.47 1011.94 1011.38 1010.84 1010.33 1009.89 1009.53 1009.25 1009.03 1008.84 1008.66 1008.44 1008.19 1007.91 1007.59 1007.28 1007.00 1006.78 1006.64
1019.09 1018.90 1018.66 1018.42 1018.22 1018.11 1018.10 1018.19 1018.35 1018.53 1018.67 1018.72 1018.64 1018.42 1018.06 1017.59 1017.05 1016.49 1015.93 1015.41 1014.91 1014.44 1013.97 1013.48 1012.96 1012.40 1011.81 1011.22 1010.65 1010.12 1009.68 1009.31 1009.02 1008.78 1008.58 1008.39 1008.18 1007.94 1007.68 1007.40 1007.12 1006.88 1006.70 1006.60
1018.87 1018.80 1018.68 1018.53 1018.41 1018.33 1018.32 1018.38 1018.48 1018.59 1018.67 1018.69 1018.60 1018.40 1018.09 1017.68 1017.20 1016.68 1016.14 1015.61 1015.07 1014.54 1013.99 1013.42 1012.82 1012.19 1011.55 1010.91 1010.31 1009.77 1009.29 1008.91 1008.60 1008.35 1008.15 1007.97 1007.79 1007.60 1007.41 1007.21 1007.02 1006.86 1006.75 1006.71
1018.55 1018.59 1018.57 1018.53 1018.48 1018.46 1018.46 1018.50 1018.56 1018.62 1018.66 1018.63 1018.53 1018.34 1018.05 1017.68 1017.24 1016.75 1016.23 1015.69 1015.14 1014.56 1013.96 1013.33 1012.67 1011.99 1011.30 1010.62 1009.97 1009.37 1008.86 1008.43 1008.08 1007.81 1007.61 1007.45 1007.33 1007.21 1007.12 1007.03 1006.96 1006.92 1006.92 1006.98
1018.27 1018.39 1018.47 1018.51 1018.54 1018.57 1018.59 1018.62 1018.66 1018.68 1018.66 1018.60 1018.47 1018.26 1017.98 1017.63 1017.22 1016.75 1016.26 1015.73 1015.17 1014.59 1013.97 1013.31 1012.61 1011.89 1011.15 1010.41 1009.70 1009.04 1008.45 1007.96 1007.56 1007.25 1007.04 1006.90 1006.83 1006.81 1006.83 1006.89 1006.96 1007.06 1007.19 1007.36
1018.15 1018.32 1018.47 1018.58 1018.66 1018.72 1018.76 1018.79 1018.80 1018.77 1018.71 1018.60 1018.43 1018.20 1017.91 1017.56 1017.16 1016.72 1016.24 1015.74 1015.20 1014.62 1014.01 1013.34 1012.63 1011.88 1011.10 1010.30 1009.52 1008.78 1008.11 1007.53 1007.06 1006.71 1006.48 1006.36 1006.36 1006.44 1006.59 1006.79 1007.03 1007.28 1007.55 1007.83
1018.26 1018.45 1018.62 1018.76 1018.87 1018.95 1019.00 1019.01 1018.98 1018.92 1018.81 1018.64 1018.43 1018.16 1017.83 1017.47 1017.07 1016.64 1016.18 1015.69 1015.18 1014.63 1014.03 1013.37 1012.65 1011.88 1011.06 1010.21 1009.36 1008.54 1007.78 1007.12 1006.59 1006.20 1005.96 1005.88 1005.94 1006.13 1006.41 1006.77 1007.16 1007.57 1007.97 1008.36
1018.57 1018.75 1018.91 1019.05 1019.16 1019.23 1019.27 1019.25 1019.19 1019.08 1018.92 1018.71 1018.44 1018.12 1017.76 1017.36 1016.94 1016.50 1016.04 1015.56 1015.05 1014.51 1013.92 1013.26 1012.54 1011.74 1010.89 1010.00 1009.09 1008.21 1007.39 1006.68 1006.11 1005.71 1005.49 1005.46 1005.61 1005.91 1006.33 1006.83 1007.37 1007.92 1008.44 1008.93
1019.00 1019.14 1019.27 1019.38 1019.46 1019.51 1019.51 1019.47 1019.38 1019.23 1019.02 1018.76 1018.44 1018.07 1017.66 1017.22 1016.75 1016.28 1015.79 1015.28 1014.75 1014.19 1013.58 1012.91 1012.17 1011.35 1010.47 1009.55 1008.62 1007.71 1006.88 1006.16 1005.61 1005.24 1005.08 1005.13 1005.38 1005.80 1006.35 1006.99 1007.66 1008.33 1008.96 1009.52
1019.42 1019.51 1019.59 1019.64 1019.68 1019.69 1019.67 1019.61 1019.49 1019.31 1019.08 1018.78 1018.42 1018.00 1017.54 1017.04 1016.52 1015.97 1015.42 1014.85 1014.26 1013.65 1012.98 1012.27 1011.49 1010.64 1009.75 1008.82 1007.90 1007.01 1006.22 1005.56 1005.07 1004.79 1004.73 1004.90 1005.27 1005.82 1006.51 1007.27 1008.05 1008.81 1009.52 1010.14
1019.71 1019.73 1019.75 1019.76 1019.75 1019.73 1019.69 1019.61 1019.48 1019.30 1019.06 1018.75 1018.36 1017.91 1017.40 1016.84 1016.25 1015.62 1014.97 1014.31 1013.62 1012.91 1012.16 1011.37 1010.54 1009.67 1008.77 1007.86 1006.98 1006.17 1005.47 1004.92 1004.57 1004.43 1004.51 1004.82 1005.34 1006.01 1006.81 1007.67 1008.53 1009.36 1010.11 1010.77
1019.76 1019.74 1019.70 1019.66 1019.63 1019.58 1019.53 1019.46 1019.35 1019.19 1018.96 1018.66 1018.28 1017.82 1017.27 1016.66 1015.99 1015.27 1014.51 1013.73 1012.92 1012.09 1011.24 1010.36 1009.47 1008.57 1007.68 1006.82 1006.02 1005.32 1004.77 1004.38 1004.20 1004.23 1004.49 1004.95 1005.60 1006.39 1007.27 1008.20 1009.11 1009.97 1010.75 1011.42
1019.57 1019.51 1019.43 1019.36 1019.31 1019.26 1019.22 1019.18 1019.10 1018.99 1018.80 1018.54 1018.19 1017.73 1017.18 1016.53 1015.79 1014.99 1014.14 1013.24 1012.31 1011.36 1010.40 1009.44 1008.50 1007.58 1006.72 1005.93 1005.24 1004.68 1004.29 1004.09 1004.10 1004.31 1004.73 1005.34 1006.10 1006.97 1007.91 1008.86 1009.79 1010.65 1011.42 1012.08
1019.17 1019.08 1018.99 1018.91 1018.85 1018.82 1018.81 1018.80 1018.78 1018.73 1018.61 1018.40 1018.10 1017.68 1017.14 1016.48 1015.72 1014.87 1013.93 1012.95 1011.92 1010.88 1009.84 1008.82 1007.85 1006.94 1006.12 1005.41 1004.85 1004.44 1004.22 1004.20 1004.38 1004.76 1005.31 1006.02 1006.85 1007.77 1008.71 1009.65 1010.55 1011.37 1012.11 1012.75
1018.65 1018.55 1018.46 1018.38 1018.34 1018.34 1018.36 1018.41 1018.45 1018.46 1018.41 1018.27 1018.03 1017.67 1017.18 1016.55 1015.79 1014.93 1013.97 1012.94 1011.87 1010.79 1009.71 1008.67 1007.70 1006.83 1006.07 1005.46 1005.02 1004.75 1004.68 1004.81 1005.12 1005.61 1006.25 1007.01 1007.86 1008.76 1009.66 1010.54 1011.37 1012.13 1012.82 1013.42
Thickness
5779 5762 5752 5761 5769 5768 5767 5763 5762 5775 5794 5787 5779 5779 5786 5793 5792 5789 5787 5787 5788 5788 5791 5791 5790 5788 5784 5781 5779 5776 5773 5771 5769 5765 5761 5757 5755 5754 5754 5754 5754 5753 5752 5751
5756 5752 5770 5778 5778 5773 5767 5759 5761 5774 5792 5786 5775 5774 5785 5789 5790 5791 5788 5785 5786 5785 5785 5786 5786 5784 5781 5778 5776 5774 5771 5769 5767 5764 5761 5759 5755 5753 5752 5752 5751 5751 5750 5749
5748 5764 5780 5776 5771 5767 5765 5760 5763 5767 5778 5782 5770 5759 5769 5782 5789 5790 5790 5789 5788 5786 5782 5782 5782 5780 5779 5776 5774 5773 5769 5767 5766 5763 5760 5757 5752 5749 5747 5746 5747 5747 5747 5746
5754 5772 5775 5770 5769 5770 5756 5775 5776 5770 5756 5747 5757 5731 5754 5768 5774 5780 5783 5784 5785 5786 5783 5780 5779 5777 5776 5775 5774 5771 5768 5765 5763 5760 5756 5752 5747 5742 5743 5743 5743 5744 5744 5744
5753 5768 5768 5764 5773 5777 5768 5781 5774 5766 5753 5742 5747 5732 5742 5761 5762 5771 5779 5782 5783 5784 5782 5778 5777 5777 5776 5774 5772 5769 5765 5762 5760 5757 5754 5749 5745 5743 5742 5741 5740 5740 5740 5741
5760 5776 5776 5776 5785 5785 5781 5770 5762 5751 5737 5721 5738 5733 5734 5754 5766 5773 5779 5782 5782 5782 5781 5779 5777 5774 5772 5771 5768 5765 5761 5758 5756 5754 5751 5747 5743 5740 5738 5736 5735 5736 5736 5737
5745 5762 5776 5783 5770 5774 5770 5741 5718 5713 5705 5713 5741 5736 5740 5767 5779 5782 5781 5781 5781 5781 5778 5775 5772 5769 5768 5767 5764 5761 5757 5753 5752 5750 5747 5745 5742 5739 5736 5734 5733 5732 5732 5732
5723 5731 5762 5774 5768 5759 5758 5743 5714 5701 5700 5713 5733 5730 5748 5773 5781 5784 5783 5780 5778 5776 5776 5774 5772 5769 5766 5763 5761 5758 5753 5749 5748 5746 5744 5742 5740 5737 5735 5733 5732 5731 5730 5730
5722 5730 5765 5777 5781 5770 5752 5742 5744 5721 5716 5709 5718 5735 5752 5770 5773 5776 5775 5774 5771 5772 5772 5771 5771 5768 5764 5761 5758 5755 5750 5747 5745 5742 5739 5737 5736 5734 5732 5730 5730 5728 5727 5726
5733 5727 5750 5769 5775 5769 5762 5752 5730 5715 5701 5696 5712 5723 5732 5752 5759 5767 5768 5768 5768 5770 5769 5768 5767 5765 5761 5759 5756 5752 5748 5745 5742 5738 5736 5733 5731 5730 5728 5726 5725 5723 5722 5721
5735 5722 5734 5748 5749 5747 5749 5743 5731 5716 5712 5699 5696 5716 5756 5757 5762 5763 5766 5769 5769 5767 5767 5764 5762 5761 5758 5755 5751 5747 5743 5740 5738 5735 5732 5729 5726 5725 5724 5722 5720 5718 5717 5716
5732 5716 5712 5731 5754 5764 5754 5743 5729 5711 5706 5707 5700 5718 5766 5764 5765 5765 5764 5767 5767 5766 5766 5764 5760 5757 5754 5750 5747 5743 5740 5736 5734 5732 5728 5724 5722 5720 5718 5717 5715 5714 5712 5711
5728 5708 5698 5709 5726 5742 5742 5743 5737 5725 5711 5703 5699 5718 5758 5760 5759 5761 5761 5761 5761 5760 5759 5758 5755 5752 5750 5747 5743 5740 5736 5733 5730 5728 5724 5720 5717 5714 5713 5712 5711 5709 5708 5705
5732 5704 5696 5693 5703 5720 5725 5734 5737 5724 5705 5704 5713 5724 5741 5748 5751 5753 5755 5756 5755 5753 5752 5750 5748 5747 5746 5743 5740 5737 5733 5730 5727 5724 5720 5717 5713 5711 5709 5707 5706 5704 5703 5700
5720 5701 5706 5711 5722 5727 5727 5729 5734 5727 5721 5714 5720 5726 5736 5745 5749 5751 5752 5752 5749 5746 5745 5744 5741 5741 5741 5738 5736 5733 5730 5727 5724 5719 5716 5713 5711 5708 5705 5703 5701 5699 5697 5695
5706 5699 5703 5706 5720 5723 5722 5728 5731 5730 5730 5727 5726 5727 5743 5746 5746 5745 5746 5746 5744 5743 5742 5740 5739 5737 5736 5735 5733 5730 5726 5724 5721 5716 5713 5710 5707 5704 5702 5699 5697 5694 5691 5689
5691 5690 5686 5686 5705 5710 5701 5717 5722 5724 5727 5727 5719 5725 5736 5735 5737 5738 5739 5741 5741 5741 5741 5738 5736 5735 5734 5733 5732 5727 5724 5721 5717 5713 5710 5707 5704 5701 5698 5696 5692 5689 5686 5683
5686 5680 5673 5676 5686 5677 5699 5722 5724 5719 5719 5725 5726 5729 5731 5732 5734 5736 5738 5737 5736 5738 5737 5736 5734 5733 5733 5731 5729 5726 5722 5717 5713 5709 5706 5704 5701 5698 5695 5692 5688 5685 5682 5679
5691 5681 5669 5664 5667 5679 5698 5709 5712 5705 5703 5717 5719 5723 5724 5727 5725 5725 5732 5732 5732 5733 5734 5734 5733 5731 5729 5726 5724 5720 5716 5712 5708 5705 5703 5701 5698 5694 5690 5687 5684 5681 5677 5674
5686 5681 5668 5663 5663 5663 5682 5706 5717 5707 5691 5709 5713 5713 5715 5716 5703 5709 5723 5725 5725 5727 5728 5728 5727 5725 5723 5721 5718 5714 5709 5705 5703 5702 5700 5697 5694 5691 5687 5683 5680 5676 5673 5670
5666 5664 5660 5657 5655 5665 5687 5704 5709 5682 5681 5701 5705 5707 5707 5705 5706 5712 5716 5718 5720 5721 5722 5722 5720 5717 5717 5716 5712 5706 5703 5700 5700 5698 5695 5691 5688 5686 5683 5679 5676 5672 5668 5664
5651 5649 5648 5648 5647 5655 5685 5691 5683 5680 5691 5696 5700 5702 5702 5703 5706 5708 5709 5710 5711 5711 5713 5713 5710 5709 5709 5709 5705 5700 5696 5697 5695 5691 5688 5684 5682 5680 5678 5673 5670 5666 5662 5658
5648 5648 5647 5648 5652 5667 5678 5680 5685 5687 5686 5691 5693 5696 5698 5697 5698 5700 5700 5701 5702 5703 5703 5704 5702 5699 5700 5700 5698 5693 5692 5691 5688 5684 5680 5678 5675 5673 5671 5667 5663 5659 5655 5651
5645 5649 5647 5646 5654 5662 5669 5674 5679 5682 5683 5688 5690 5692 5692 5689 5690 5690 5690 5691 5692 5693 5694 5695 5693 5691 5690 5691 5691 5689 5687 5685 5681 5676 5674 5671 5667 5664 5662 5659 5656 5652 5648 5645
5637 5640 5636 5638 5647 5655 5661 5665 5670 5674 5677 5679 5681 5683 5683 5682 5681 5681 5679 5679 5680 5682 5683 5683 5682 5681 5681 5682 5681 5681 5680 5677 5673 5669 5666 5663 5660 5657 5653 5650 5648 5645 5644 5642
5631 5630 5627 5628 5640 5641 5646 5656 5662 5663 5664 5666 5668 5670 5672 5672 5671 5670 5668 5669 5669 5669 5670 5670 5670 5670 5671 5672 5671 5671 5671 5669 5664 5660 5657 5655 5651 5648 5644 5641 5638 5636 5635 5635